Overview Statistics Trail Chart Weather Telemetry Raw packets
 

This is the latest recevied weather packets stored in our database for station/object K5KVN. If no packets are shown the sender has not sent any weather packets the latest 10 day(s).

<< 13 14 15 16 17 18 19 >>
Time Temp. Humidity Pressure Rain* Wind** Luminosity Snow
1788475045 36.11° C 45% 1013.3 hPa 0 mm - - -
1788474383 36.11° C 45% 1013.3 hPa 0 mm - - -
1788473783 36.11° C 46% 1013.3 hPa 0 mm - - -
1788473183 36.11° C 45% 1013.3 hPa 0 mm - - -
1788472584 36.67° C 44% 1013.5 hPa 0 mm - - -
1788471984 36.11° C 46% 1013.5 hPa 0 mm - - -
1788471443 36.67° C 45% 1013.6 hPa 0 mm - - -
1788470782 35.56° C 47% 1013.7 hPa 0 mm - - -
1788470182 35° C 48% 1013.8 hPa 0 mm - - -
1788469581 35.56° C 46% 1013.9 hPa 0 mm - - -
1788468980 36.11° C 45% 1014.1 hPa 0 mm - - -
1788468380 37.22° C 44% 1013.9 hPa 0 mm - - -
1788467779 36.11° C 46% 1014.1 hPa 0 mm - - -
1788467241 36.67° C 45% 1014.2 hPa 0 mm - - -
1788466580 36.11° C 45% 1014.4 hPa 0 mm - - -
1788465980 36.67° C 45% 1014.3 hPa 0 mm - - -
1788465379 36.67° C 45% 1014.4 hPa 0 mm - - -
1788464780 37.22° C 45% 1014.5 hPa 0 mm - - -
1788464181 36.67° C 45% 1014.5 hPa 0 mm - - -
1788463579 36.67° C 45% 1014.6 hPa 0 mm - - -
1788462980 36.67° C 45% 1014.7 hPa 0 mm - - -
1788462379 36.67° C 45% 1014.8 hPa 0 mm - - -
1788461778 36.11° C 46% 1015 hPa 0 mm - - -
1788461180 36.67° C 45% 1015.2 hPa 0 mm - - -
1788460640 36.11° C 45% 1015.3 hPa 0 mm - - -

* Rain latest hour (hover to see other rain measurements)
** Current wind speed in m/s (hover to see current wind gust speed)